This is the latest recevied weather packets stored in our database for station/object WD4IXD. If no packets are shown the sender has not sent any weather packets the latest 1 day(s).
| Time | Temp. | Humidity | Pressure | Rain* | Wind** | Luminosity | Snow |
|---|---|---|---|---|---|---|---|
| 1778037904 | 0.56° C | 94% | 1016.3 hPa | 0 mm | - | 0 W/m² | - |
| 1778037615 | 0.56° C | 95% | 1016.2 hPa | 0 mm | - | 0 W/m² | - |
| 1778037015 | 0.56° C | 95% | 1016.3 hPa | 0 mm | - | 0 W/m² | - |
| 1778036715 | 0.56° C | 95% | 1016.1 hPa | 0 mm | - | 0 W/m² | - |
| 1778035815 | 0.56° C | 94% | 1015.8 hPa | 0.25 mm | - | 0 W/m² | - |
| 1778034904 | 0.56° C | 94% | 1015.7 hPa | 0.25 mm | - | 0 W/m² | - |
| 1778034615 | 0.56° C | 94% | 1015.6 hPa | 0.25 mm | - | 0 W/m² | - |
| 1778034304 | 0.56° C | 94% | 1015.5 hPa | 0.25 mm | - | 0 W/m² | - |
| 1778034015 | 0.56° C | 94% | 1015.2 hPa | 0.25 mm | - | 0 W/m² | - |
| 1778033704 | 0.56° C | 94% | 1015.1 hPa | 0.25 mm | - | 0 W/m² | - |
| 1778033415 | 0.56° C | 94% | 1015.1 hPa | 0.25 mm | - | 0 W/m² | - |
| 1778032815 | 0.56° C | 94% | 1015.1 hPa | 0.51 mm | - | 0 W/m² | - |
| 1778032504 | 0.56° C | 94% | 1015.1 hPa | 0.51 mm | - | 0 W/m² | - |
| 1778032214 | 0.56° C | 94% | 1015.1 hPa | 0.25 mm | - | 0 W/m² | - |
| 1778031615 | 0.56° C | 94% | 1014.9 hPa | 0.25 mm | - | 0 W/m² | - |
| 1778031004 | 0.56° C | 94% | 1014.9 hPa | 0.51 mm | - | 0 W/m² | - |
| 1778030715 | 1.11° C | 94% | 1014.9 hPa | 0.51 mm | - | 0 W/m² | - |
| 1778030115 | 1.11° C | 94% | 1014.9 hPa | 0.51 mm | - | 5 W/m² | - |
| 1778029515 | 1.11° C | 94% | 1014.8 hPa | 0.76 mm | - | 9 W/m² | - |
| 1778028904 | 1.11° C | 94% | 1014.9 hPa | 0.51 mm | - | 11 W/m² | - |
| 1778028615 | 1.11° C | 94% | 1014.9 hPa | 0.51 mm | - | 11 W/m² | - |
| 1778028015 | 1.11° C | 94% | 1014.7 hPa | 0.51 mm | - | 21 W/m² | - |
| 1778027104 | 1.11° C | 94% | 1014.7 hPa | 0.25 mm | - | 23 W/m² | - |
| 1778026815 | 1.11° C | 94% | 1014.7 hPa | 0.25 mm | - | 30 W/m² | - |
| 1778026215 | 1.11° C | 94% | 1014.6 hPa | 0 mm | - | 16 W/m² | - |
* Rain latest hour (hover to see other rain measurements)
** Current wind speed in m/s (hover to see current wind gust speed)